Change the Weather History Date:

Monday, August 26, 2013

  Actual Average Record
Temperature  
Mean Temperature 73 °F -  
Max Temperature 82 °F 79 °F 94 °F (1948)
Min Temperature 64 °F 54 °F 41 °F (1977)
Cooling Degree Days 8    
Growing Degree Days 23 (Base 50)    
Moisture  
Dew Point 62 °F    
Average Humidity 74    
Maximum Humidity 96    
Minimum Humidity 49    
Precipitation  
Precipitation 0.43 in - - ()
Sea Level Pressure  
Sea Level Pressure 30.12 in    
Wind  
Wind Speed 6 mph (SW)    
Max Wind Speed 9 mph    
Max Gust Speed 21 mph    
Visibility 8 miles    
Events Rain    
Averages and records for this station are not official NWS values.
T = Trace of Precipitation, MM = Missing Value Source: NWS Daily Summary

Daily Weather History Graph

Daily Weather History Graph

Search for Another Location

Airport or City:

Trip Planner

Search our weather history database for the weather conditions in past years. The results will help you decide how hot, cold, wet, or windy it might be!

Date:

Astronomy

Aug. 26, 2013 Rise Set
Actual Time 6:40 AM EDT 8:03 PM EDT
Civil Twilight 6:12 AM EDT 8:32 PM EDT
Nautical Twilight 5:37 AM EDT 9:06 PM EDT
Astronomical Twilight 5:00 AM EDT 9:43 PM EDT
Moon 11:07 PM EDT (8/26) 12:46 PM EDT (8/26)
Length of Visible Light 14h 20m
Length of Day
13h 22m
Waning Gibbous, 67% of the Moon is Illuminated
Aug 26
Waning Gibbous
Aug 28
Last Quarter
Sep 5
New
Sep 12
First Quarter
Sep 19
Full

Hourly Weather History & Observations

Time (EDT) Temp. Heat Index Dew Point Humidity Pressure Visibility Wind Dir Wind Speed Gust Speed Precip Events Conditions
12:53 AM 66.0 °F - 57.0 °F 73% 30.24 in 10.0 mi SSW 5.8 mph - N/A   Clear
1:53 AM 66.0 °F - 57.0 °F 73% 30.21 in 10.0 mi SSW 5.8 mph - N/A   Clear
2:53 AM 64.9 °F - 57.0 °F 75% 30.20 in 10.0 mi SSW 6.9 mph - N/A   Clear
3:53 AM 64.9 °F - 57.0 °F 75% 30.19 in 10.0 mi SSW 6.9 mph - N/A   Clear
4:53 AM 64.9 °F - 55.9 °F 73% 30.18 in 10.0 mi SW 8.1 mph - N/A   Clear
5:53 AM 64.9 °F - 55.9 °F 73% 30.19 in 10.0 mi SW 4.6 mph - N/A   Clear
6:53 AM 64.0 °F - 55.9 °F 75% 30.20 in 10.0 mi SW 6.9 mph - N/A   Clear
7:53 AM 66.0 °F - 57.9 °F 75% 30.20 in 10.0 mi SSW 5.8 mph - N/A   Clear
8:53 AM 68.0 °F - 59.0 °F 73% 30.20 in 10.0 mi SSW 5.8 mph - N/A   Clear
9:53 AM 70.0 °F - 60.1 °F 71% 30.19 in 10.0 mi SW 4.6 mph - N/A   Clear
10:53 AM 73.0 °F - 61.0 °F 66% 30.19 in 10.0 mi SW 6.9 mph - N/A   Clear
11:53 AM 75.9 °F - 62.1 °F 62% 30.17 in 10.0 mi WSW 8.1 mph 16.1 mph N/A   Clear
12:53 PM 80.1 °F 81.5 °F 63.0 °F 56% 30.13 in 10.0 mi WSW 8.1 mph - N/A   Clear
1:53 PM 79.0 °F - 63.0 °F 58% 30.11 in 10.0 mi WSW 8.1 mph - N/A   Clear
2:53 PM 82.0 °F 83.0 °F 62.1 °F 51% 30.09 in 10.0 mi WSW 9.2 mph 20.7 mph N/A   Clear
3:53 PM 82.0 °F 82.7 °F 61.0 °F 49% 30.05 in 10.0 mi SW 9.2 mph 16.1 mph N/A   Clear
4:53 PM 81.0 °F 81.7 °F 61.0 °F 50% 30.02 in 10.0 mi SW 8.1 mph 19.6 mph N/A   Clear
5:53 PM 80.1 °F 81.2 °F 62.1 °F 54% 30.01 in 10.0 mi SW 9.2 mph 17.3 mph N/A   Clear
6:53 PM 78.1 °F - 61.0 °F 56% 30.03 in 10.0 mi WSW 5.8 mph - N/A   Scattered Clouds
7:35 PM 69.8 °F - 66.2 °F 88% 30.10 in 1.8 mi North 3.5 mph - 0.17 in Rain Heavy Rain
7:43 PM 69.8 °F - 66.2 °F 88% 30.11 in 2.5 mi Calm Calm - 0.21 in Rain Heavy Rain
7:53 PM 68.0 °F - 66.0 °F 93% 30.07 in 1.0 mi Calm Calm - 0.37 in Rain Heavy Rain
8:02 PM 68.0 °F - 66.2 °F 94% 30.07 in 3.0 mi SSW 4.6 mph - 0.02 in Rain Light Rain
8:29 PM 68.0 °F - 66.2 °F 94% 30.07 in 6.0 mi South 4.6 mph - 0.03 in Rain Light Rain
8:53 PM 68.0 °F - 66.9 °F 96% 30.05 in 6.0 mi Calm Calm - 0.03 in   Overcast
9:53 PM 69.1 °F - 66.0 °F 90% 30.04 in 9.0 mi SSW 3.5 mph - N/A   Mostly Cloudy
10:53 PM 69.1 °F - 66.0 °F 90% 30.02 in 4.0 mi South 5.8 mph - 0.03 in Rain Rain
11:53 PM 69.1 °F - 66.0 °F 90% 30.01 in 7.0 mi Variable 3.5 mph - 0.00 in Rain Light Rain